EHI
0 0 0 0 0 0 0 0 0 0 0 0 0 0 0 0 0 0 0 0 0 0 0 0 0 0 0 0 0 0 0 0 0 0 0 0 0 0 0 0 0 0 0
0 0 0 0 0 0 0 0 0 0 0 0 0 0 0 0 0 0 0 0 0 0 0 0 0 0 0 0 0 0 0 0 0 0 0 0 0 0 0 0 0 0 0
0 0 0 0 0 0 0 0 0 0 0 0 0 0 0 0 0 0 0 0 0 0 0 0 0 0 0 0 0 0 0 0 0 0 0 0 0 0 0 0 0 0 0
0 0 0 0 0 0 0 0 0 0 0 0 0 0 0 0 0 0 0 0 0 0 0 0 0 0 0 0 0 0 0 0 0 0 0 0 0 0 0 0 0 0 0
0 0 0 0 0 0 0 0 0 0 0 0 0 0 0 0 0 0 0 0 0 0 0 0 0 0 0 0 0 0 0 0 0 0 0 0 0 0 0 0 0 0 0
0 0 0 0 0 0 0 0 0 0 0 0 0 0 0 0 0 0 0 0 0 0 0 0 0 0 0 0 0 0 0 0 0 0 0 0 0 0 0 0 0 0 0
0 0 0 0 0 0 0 0 0 0 0 0 0 0 0 0 0 0 0 0 0 0 0 0 0 0 0 0 0 0 0 0 0 0 0 0 0 0 0 0 0 0 0
0 0 0 0 0 0 0 0 0 0 0 0 0 0 0 0 0 0 0 0 0 0 0 0 0 0 0 0 0 0 0 0 0 0 0 0 0 0 0 0 0 0 0
0 0 0 0 0 0 0 0 0 0 0 0 0 0 0 0 0 0 0 0 0 0 0 0 0 0 0 0 0 0 0 0 0 0 0 0 0 0 0 0 0 0 0
0 0 0 0 0 0 0 0 0 0 0 0 0 0 0 0 0 0 0 0 0 0 0 0 0 0 0 0 0 0 0 0 0 0 0 0 0 0 0 0 0 0 0
0 0 0 0 0 0 0 0 0 0 0 0 0 0 0 0 0 0 0 0 0 0 0 0 0 0 0 0 0 0 0 0 0 0 0 0 0 0 0 0 0 0 0
0 0 0 0 0 0 0 0 0 0 0 0 0 0 0 0 0 0 0 0 0 0 0 0 0 0 0 0 0 0 0 0 0 0 0 0 0 0 0 0 0 0 0
0 0 0 0 0 0 0 0 0 0 0 0 0 0 0 0 0 0 0 0 0 0 0 0 0 0 0 0 0 0 0 0 0 0 0 0 0 0 0 0 0 0 0
0 0 0 0 0 0 0 0 0 0 0 0 0 0 0 0 0 0 0 0 0 0 0 0 0 0 0 0 0 0 0 0 0 0 0 0 0 0 0 0 0 0 0
0 0 0 0 0 0 0 0 0 0 0 0 0 0 0 0 0 0 0 0 0 0 0 0 0 0 0 0 0 0 0 0 0 0 0 0 0 0 0 0 0 0 0
0 0 0 0 0 0 0 0 0 0 0 0 0 0 0 0 0 0 0 0 0 0 0 0 0 0 0 0 0 0 0 0 0 0 0 0 0 0 0 0 0 0 0
0 0 0 0 0 0 0 0 0 0 0 0 0 0 0 0 0 0 0 0 0 0 0 0 0 0 0 0 0 0 0 0 0 0 0 0 0 0 0 0 0 0 0
0 0 0 0 0 0 0 0 0 0 0 0 0 0 0 0 0 0 0 0 0 0 0 0 0 0 0 0 0 0 0 0 0 0 0 0 0 0 0 0 0 0 0
0 0 0 0 0 0 0 0 0 0 0 0 0 0 0 0 0 0 0 0 0 0 0 0 0 0 0 0 0 0 0 0 0 0 0 0 0 0 0 0 0 0 0
0 0 0 0 0 0 0 0 0 0 0 0 0 0 0 0 0 0 0 0 0 0 0 0 0 0 0 0 0 0 0 0 0 0 0 0 0 0 0 0 0 0 0
0 0 0 0 0 0 0 0 0 0 0 0 0 0 0 0 0 0 0 0 0 0 0 0 0 0 0 0 0 0 0 0 0 0 0 0 0 0 0 0 0 0 0
0 0 0 0 0 0 0 0 0 0 0 0 0 0 0 0 0 0 0 0 0 0 0 0 0 0 0 0 0 0 0 0 0 0 0 0 0 0 0 0 0 0 0
0 0 0 0 0 0 0 0 0 0 0 0 0 0 0 0 0 0 0 0 0 0 0 0 0 0 0 0 0 0 0 0 0 0 0 0 0 0 0 0 0 0 0
0 0 0 0 0 0 0 0 0 0 0 0 0 0 0 0 0 0 0 0 0 0 0 0 0 0 0 0 0 0 0 0 0 0 0 0 0 0 0 0 0 0 0
0 0 0 0 0 0 0 0 0 0 0 0 0 0 0 0 0 0 0 0 0 0 0 0 0 0 0 0 0 0 0 0 0 0 0 0 0 0 0 0 0 0 0
0 0 0 0 0 0 0 0 0 0 0 0 0 0 0 0 0 0 0 0 0 0 0 0 0 0 0 0 0 0 0 0 0 0 0 0 0 0 0 0 0 0 0
Wind_Speed
1 1 2 2 3 2 2 2 2 2 2 2 2 2 2 2 2 3 4 4 4 4 3 3 3 4 3 3 3 2 2 2 2 2 2 2 2 2 2 2 2 4 4
1 1 2 2 2 2 2 1 1 1 2 1 1 1 1 1 1 2 3 4 4 4 3 3 3 3 3 3 4 3 1 2 2 2 1 3 3 2 2 2 3 3 3
4 3 2 2 2 2 2 2 1 1 1 1 1 2 1 1 2 2 2 3 3 3 3 3 3 3 3 3 3 2 2 1 2 2 1 1 2 2 2 2 2 3 3
4 4 4 3 3 3 2 2 1 1 1 1 1 1 1 0 1 1 1 2 3 3 3 3 3 2 2 2 3 3 1 1 1 2 1 0 1 1 3 2 1 2 3
5 5 5 5 4 3 2 2 2 1 1 1 1 1 1 1 1 1 2 2 2 3 3 2 2 2 2 2 2 2 2 1 0 1 1 1 1 1 1 3 3 2 1
5 4 3 3 2 2 2 2 2 2 1 1 1 2 2 2 1 2 2 2 2 2 2 2 2 2 2 2 1 1 2 1 1 1 1 1 1 1 1 3 3 3 2
4 4 4 4 3 3 3 2 3 3 2 2 2 3 3 2 3 3 2 2 1 1 2 2 1 1 2 2 1 1 1 1 1 1 1 1 1 1 1 2 3 3 3
3 4 4 4 4 4 3 3 4 4 3 3 3 3 3 2 2 3 2 2 2 2 2 1 1 2 2 2 1 1 1 1 1 1 1 0 1 1 1 1 2 3 3
2 3 3 3 4 4 4 4 4 4 4 4 4 3 3 3 4 3 3 2 2 2 2 2 2 2 1 1 0 0 1 1 0 1 1 1 1 1 1 1 1 2 3
1 2 2 3 3 3 3 3 4 4 4 4 4 3 4 4 4 3 3 3 3 2 2 2 2 2 1 1 1 1 1 0 1 1 1 1 1 1 1 1 1 2 3
3 2 2 2 2 2 2 3 3 4 4 4 4 4 4 4 3 3 4 4 3 3 3 3 2 2 2 2 1 1 1 1 1 1 1 2 1 1 1 1 1 1 2
2 2 2 1 1 2 2 3 3 4 4 4 4 4 4 4 4 4 4 4 4 4 4 3 3 3 3 2 2 2 2 2 2 2 1 2 1 2 1 1 2 2 2
2 2 2 2 2 3 3 3 3 4 4 3 4 4 4 4 5 5 5 4 4 4 3 3 4 4 3 3 3 3 3 3 3 3 2 3 2 2 2 2 2 2 2
2 2 2 3 3 3 3 3 4 3 3 3 4 5 5 5 5 5 5 4 4 4 4 4 4 4 4 4 4 4 3 3 3 3 3 3 3 3 3 2 2 2 2
3 2 2 3 3 3 4 3 4 3 3 3 4 5 4 4 4 4 4 4 4 5 4 4 4 4 4 4 4 4 4 4 3 3 3 3 4 5 4 3 2 2 2
4 3 3 3 4 4 4 4 4 3 2 3 5 4 3 3 4 4 4 4 4 4 4 4 4 5 5 7 9 6 4 4 4 4 3 4 4 6 7 7 5 3 3
4 4 4 4 4 4 4 4 4 3 3 4 4 4 3 4 4 4 3 4 4 4 4 4 4 5 7 10 10 10 5 5 5 4 4 3 3 5 3 4 5 4 5
4 4 4 4 4 3 3 3 3 2 3 3 4 4 3 4 3 3 4 4 3 4 4 5 5 5 7 10 10 10 5 4 5 5 5 4 4 4 4 3 2 2 2
5 5 4 4 4 4 4 3 3 2 3 4 4 4 4 4 4 4 5 4 3 4 4 4 5 5 7 10 10 9 3 3 4 4 4 5 4 8 8 4 3 3 2
4 4 3 3 4 4 3 2 3 3 4 5 5 4 4 4 5 5 4 3 3 4 4 4 4 5 6 8 10 9 3 4 4 3 4 7 7 8 8 4 4 4 3
4 4 3 3 4 4 2 3 4 5 5 4 4 4 4 4 5 4 3 3 3 3 3 4 4 4 6 8 10 10 4 5 4 4 3 4 9 9 9 6 4 5 3
4 3 3 4 4 3 3 4 6 6 4 4 4 4 4 3 3 3 3 3 3 3 4 3 4 4 5 6 8 11 10 7 5 4 4 4 8 9 8 6 5 6 4
4 3 4 5 5 3 3 5 6 4 3 3 4 4 3 3 3 3 3 2 3 3 3 3 4 4 3 5 10 10 10 10 5 4 6 7 8 7 5 6 6 4 2
4 4 4 5 6 4 4 5 5 4 3 4 4 3 3 3 3 3 3 3 3 4 4 4 5 4 3 3 4 4 5 7 6 4 5 7 7 5 4 4 3 2 2
4 3 4 5 7 5 5 5 4 3 4 4 4 4 3 3 3 3 4 4 5 6 5 5 4 4 5 6 8 5 4 3 4 3 2 2 2 2 2 2 2 2 2
4 4 5 6 6 5 6 5 4 3 3 4 4 3 3 3 3 3 4 7 8 10 11 10 8 7 9 9 10 10 10 10 9 5 3 4 4 4 4 3 3 3 3
Wind_Direction
157 119 121 120 110 97 94 82 71 51 51 52 49 42 25 15 22 23 25 24 24 27 36 29 24 22 20 11 359 352 357 357 345 360 345 341 354 28 34 35 38 34 25
180 178 154 151 149 150 132 113 98 72 58 67 85 103 96 36 22 5 19 22 22 20 31 31 25 27 17 17 16 14 5 358 12 20 357 342 342 357 19 33 43 32 23
207 208 202 202 185 191 182 177 165 117 75 71 78 65 49 25 12 2 1 6 13 19 23 24 25 26 30 11 3 13 30 352 347 18 39 15 310 318 326 19 31 21 17
213 210 209 213 211 213 193 187 173 161 135 105 105 119 130 282 291 315 334 351 7 8 15 18 18 20 23 11 359 14 0 9 340 341 2 297 241 289 309 311 6 13 11
211 212 213 213 208 192 183 191 186 186 160 138 147 138 168 238 293 326 337 344 349 351 5 9 10 8 3 3 4 3 1 9 332 331 325 326 325 263 262 291 313 333 341
210 213 211 199 191 177 182 188 197 215 195 183 176 177 204 228 275 301 308 318 321 330 347 356 6 356 350 340 340 352 360 358 0 349 320 297 303 311 286 286 303 304 300
203 204 198 202 205 201 205 202 210 233 219 207 208 207 213 214 230 252 263 275 286 294 307 328 336 337 326 331 343 359 352 360 13 355 312 321 311 287 276 279 293 295 292
213 216 214 212 214 215 212 209 219 235 226 219 225 220 217 216 231 237 236 243 249 256 270 280 292 303 313 326 344 344 328 13 13 350 333 316 306 295 272 268 288 299 292
232 232 231 224 224 224 220 215 222 237 236 229 229 227 223 224 235 239 237 243 246 252 252 252 262 279 288 296 306 324 321 338 333 303 308 306 308 315 296 273 248 260 288
283 257 247 243 240 233 230 221 222 233 237 231 230 232 228 227 230 229 238 245 250 248 246 249 252 264 275 273 243 268 277 276 286 267 278 297 302 312 313 284 265 240 247
282 278 272 261 252 241 226 227 233 240 242 236 233 237 239 233 228 230 238 240 243 236 236 235 236 243 252 253 233 246 245 239 270 272 248 270 282 290 302 296 279 264 248
291 288 285 282 272 262 253 245 244 245 245 239 235 237 240 235 234 238 239 235 237 232 229 228 229 233 237 232 224 236 236 231 241 250 251 266 270 280 284 285 284 277 264
323 327 331 315 293 280 270 262 255 254 254 241 239 244 242 236 239 241 240 232 231 233 228 222 226 229 229 225 223 222 229 228 231 232 234 248 240 259 264 265 271 275 279
315 318 317 305 295 286 275 269 267 257 253 241 240 246 246 241 242 242 237 231 225 225 226 226 229 229 228 226 223 217 222 226 232 231 232 236 230 242 248 255 261 269 275
304 294 288 288 293 294 288 277 272 267 251 244 246 250 253 248 246 243 240 236 231 231 227 227 234 233 228 226 220 218 219 219 229 235 238 240 240 246 244 244 247 253 260
272 279 283 286 287 288 288 287 281 276 254 248 254 260 259 255 248 245 241 239 238 235 227 227 231 236 239 242 237 227 218 218 222 233 241 249 255 261 263 265 264 257 256
258 265 270 267 268 272 272 272 273 276 259 256 263 261 255 255 252 246 239 240 239 231 233 234 231 239 246 248 248 240 222 214 220 223 230 242 245 252 252 267 276 284 288
254 263 265 268 270 269 274 272 273 271 262 263 267 263 255 254 255 246 243 243 236 233 238 240 236 241 252 252 250 246 229 217 220 219 218 226 242 244 233 225 241 256 274
247 252 254 259 270 278 279 280 284 282 274 269 267 262 252 252 251 248 249 243 236 240 238 241 237 240 256 255 249 244 215 224 229 225 221 223 231 248 247 229 231 248 266
261 260 266 270 273 277 277 271 277 276 268 265 264 260 249 244 245 247 249 243 235 241 242 245 240 240 249 254 250 241 211 222 230 228 228 237 237 244 247 226 216 241 250
272 267 263 264 265 271 264 265 271 267 266 270 268 263 253 248 248 250 246 245 241 243 244 251 252 246 249 257 254 246 217 215 222 226 226 233 244 247 247 239 217 239 246
276 267 261 268 271 261 245 261 266 267 275 273 270 267 263 258 253 246 252 244 235 241 248 254 266 254 253 254 256 253 241 226 217 226 221 224 239 245 248 246 237 249 257
270 265 258 274 280 262 234 253 265 273 277 277 273 272 272 264 252 240 247 251 234 236 246 243 256 262 248 252 256 255 251 243 226 222 226 230 237 238 245 248 246 243 206
267 266 269 274 280 275 254 249 266 271 266 269 273 272 269 272 262 245 236 235 234 238 243 244 251 259 254 243 245 245 248 249 240 225 232 237 236 225 224 240 247 212 191
265 259 259 265 272 277 271 265 261 256 259 264 266 266 259 259 260 251 239 237 233 228 237 241 239 245 256 247 241 234 228 219 220 198 187 196 198 203 200 201 210 206 210
264 268 265 264 271 274 275 272 259 243 245 261 261 255 254 255 255 264 275 254 250 259 255 252 247 249 252 263 255 247 243 238 231 217 204 210 211 215 214 215 217 212 216